Regional Weather Roundup
Issued by NWS Midland/Odessa, TX

Skip options and go directly to product.
Home | Oldest Version | Next Version | Current Version | All | Text Only | Save Text | Print | Product List | Glossary On

Skip product version selection by date and time.   
006
ASUS44 KMAF 272310
RWRMAF
MIDLAND AREA WEATHER ROUNDUP
NATIONAL WEATHER SERVICE MIDLAND TX
600 PM CDT MON JUN 27 2016

...IN SOUTHWEST TEXAS AND SOUTHEAST NEW MEXICO...

CITY           SKY/WX    TMP DP  RH WIND       PRES   REMARKS
ALPINE         CLOUDY    69  65  88 S9        30.27R
ANDREWS        CLOUDY    79  63  58 S13G18    30.17F
ARTESIA        CLOUDY    82  63  51 SE16      30.15S
BIG SPRING     CLOUDY    82  56  40 SE6       30.16F
CARLSBAD       CLOUDY    74  69  85 S12       30.14F
DRYDEN           N/A     78  73  84 N9        30.08F
FORT STOCKTON  MOSUNNY   79  67  66 SE13G24   30.12S
GUAD PASS      CLOUDY    68  61  78 E33       30.25R
HOBBS          PTSUNNY   81  63  54 E14       30.19S
MARFA          LGT RAIN N/A N/A N/A E20       30.22S
MIDLAND AIRPK  CLOUDY    82  62  49 E10       30.15F
MIDLAND INTL   PTSUNNY   82  62  50 SE12G24   30.14F
ODESSA         PTSUNNY   80  62  54 S14G37    30.16F
PECOS          CLOUDY    80  70  72 NE12      30.11S
PRESIDIO       FAIR      80  62  54 N17       30.07R
SEMINOLE       PTSUNNY   82  60  46 SE14      30.19S
SNYDER           N/A     85  60  41 S10       30.14F
WINK           CLOUDY    80  67  64 SE12      30.12S
$$
...OTHER STATIONS IN TEXAS...

CITY           SKY/WX    TMP DP  RH WIND       PRES   REMARKS
ABILENE        PTSUNNY   91  63  39 E9        30.08F
AMARILLO       SUNNY     85  61  44 S14       30.18F
AUSTIN         MOSUNNY   93  68  43 CALM      30.00F
BROWNSVILLE    SUNNY     90  76  63 SE13      29.97F HX 101
CORPUS CHRISTI PTSUNNY   91  73  55 E15       29.98F
DALLAS FTW     PTSUNNY   89  69  51 E20G26    30.01S THUNDER
DEL RIO        CLOUDY    91  65  41 E10       29.99F
EL PASO        MOSUNNY   92  52  25 NE20G25   30.08F
HOUSTON INT    CLOUDY    90  73  57 SW6       29.99F
LUBBOCK        MOSUNNY   88  59  37 SE15G23   30.16F
SAN ANGELO     SUNNY     86  66  51 CALM      30.09F
SAN ANTONIO    PTSUNNY   91  67  44 SE6       30.02F
WACO           SUNNY     95  68  41 SW6       30.01F
WICHITA FALLS  NOT AVBL
$$
...OTHER LOCATIONS IN NEW MEXICO...

CITY           SKY/WX    TMP DP  RH WIND       PRES   REMARKS
ALAMAGORDO     SUNNY     90  52  27 W8        30.12S
ALBUQUERQUE    PTSUNNY   90  41  18 E12       30.22F
CANNON AFB     MOSUNNY   85  58  38 SE9       30.21F
CLOVIS         MOSUNNY   84  59  42 E9        30.22F
HOLLOMAN AFB   SUNNY     90  56  31 W12       30.10F
ROSWELL        CLOUDY    90  56  31 E12G17    30.14F
RUIDOSO          N/A     75  48  38 E14G21    30.39S
SANTA FE       CLOUDY    85  43  22 SE7       30.30F THUNDER
TRUTH OR CONSE CLOUDY    91  48  22 NE13      30.15F
TUCUMCARI      SUNNY     91  53  27 S14       30.18F
$$

USA.gov is the U.S. government's official web portal to all federal, state and local government web resources and services.